[Iaude] MPEC G94: 2024 GH1 [a=2.05,e=0.53,i=1.7,H=28.2]

mpec at cfa.harvard.edu mpec at cfa.harvard.edu
Mon Apr 8 06:28:17 EDT 2024


M.P.E.C. 2024-G94                                 Issued 2024 April 8, 10:26 UT

     The Minor Planet Electronic Circulars contain information on unusual
         minor planets, routine data on comets and natural satellites,
         and occasional editorial announcements.  They are published
    on behalf of Division F of the International Astronomical Union by the
          Minor Planet Center, Smithsonian Astrophysical Observatory,
                          Cambridge, MA 02138, U.S.A.
			  
             Prepared using the Tamkin Foundation Computer Network

                              MPC at CFA.HARVARD.EDU
            URL https://www.minorplanetcenter.net/    ISSN 1523-6714

                                    2024 GH1                                    


Observations:
     K24G01H*1C2024 04 07.34796413 49 47.212-03 56 14.71         19.51GVEG094G96
     K24G01H 1C2024 04 07.35822113 50 04.675-04 00 54.90         19.09GVEG094G96
     K24G01H 1C2024 04 07.36333513 50 13.301-04 03 12.96         19.73GVEG094G96
     K24G01H mC2024 04 07.40706813 51 26.830-04 22 42.90         20.08GVEG094I52
     K24G01H mC2024 04 07.40723813 51 27.160-04 22 47.70         19.06GVEG094I52
     K24G01H mC2024 04 07.40740813 51 27.380-04 22 53.80               VEG094I52
     K24G01H mC2024 04 07.40758413 51 27.690-04 22 56.80         20.71GVEG094I52
     K24G01H KC2024 04 07.43713213 52 54.019-04 24 11.02         19.7 GVEG094474
     K24G01H KC2024 04 07.43808813 52 18.491-04 36 13.57         19.53GVEG094I52
     K24G01H KC2024 04 07.43853313 52 19.207-04 36 24.70         20.37GVEG094I52
     K24G01H KC2024 04 07.43943213 52 20.719-04 36 48.06         19.66GVEG094I52
     K24G01H KC2024 04 07.43974513 52 58.435-04 25 19.81         19.7 GVEG094474
     K24G01H KC2024 04 07.44244713 53 02.988-04 26 30.55         19.4 GVEG094474
     K24G01H KC2024 04 07.44514813 53 07.550-04 27 42.26         19.5 GVEG094474
     K24G01H KC2024 04 07.44776213 53 11.930-04 28 50.38         19.6 GVEG094474
     K24G01H KC2024 04 07.59498413 57 05.254-05 30 21.60         19.9 GVEG094474
     K24G01H KC2024 04 07.59652113 57 07.591-05 30 58.79         19.6 GVEG094474
     K24G01H KC2024 04 07.59805713 57 09.950-05 31 35.44         19.5 GVEG094474
     K24G01H KC2024 04 07.59959313 57 12.274-05 32 12.30         19.6 GVEG094474
     K24G01H KC2024 04 07.60112813 57 14.594-05 32 49.27         19.7 GVEG094474
     K24G01H KB2024 04 07.91588114 05 43.49 -07 39 32.1          19.9 GXEG094I93
     K24G01H KB2024 04 07.92763114 05 58.90 -07 43 28.9          19.7 GXEG094I93
     K24G01H KB2024 04 07.94805714 06 25.21 -07 50 16.6          19.9 GXEG094I93
     K24G01H KC2024 04 08.22576014 12 26.85 -09 14 56.5          20.5 GVEG094H21
     K24G01H KC2024 04 08.22855714 12 29.90 -09 15 44.6          20.4 GVEG094H21
     K24G01H KC2024 04 08.23135414 12 32.98 -09 16 33.0          20.2 GVEG094H21
     K24G01H KC2024 04 08.23415114 12 36.01 -09 17 20.9          20.3 GVEG094H21

Observer details:
474 Mount John Observatory, Lake Tekapo.  Observers A. C. Gilmore, P. M.
    Kilmartin.  Measurer P. M. Kilmartin.  0.6-m f/6.3 Reflector + CCD.
G96 Mt. Lemmon Survey.  Observer H. Groeller.  Measurers T. Beuden, V. F.
    Carvajal, D. Fay, J. B. Fazekas, D. C. Fuls, A. R. Gibbs, A. D. Grauer, H.
    Groeller, J. K. Hogan, R. A. Kowalski, S. M. Larson, G. J. Leonard, D.
    Rankin, R. L. Seaman, F. C. Shelly, K. W. Wierzchos.  1.5-m reflector +
    10K CCD.
H21 Astronomical Research Observatory, Westfield.  Observer R. Holmes.
    Measurers T. Linder, R. Holmes, L. Horn.  0.76-m f/3.0 astrograph + CCD.
I52 Steward Observatory, Mt. Lemmon Station.  Observer J. K. Hogan.  Measurers
    T. Beuden, V. F. Carvajal, D. Fay, J. B. Fazekas, D. C. Fuls, A. R. Gibbs,
    A. D. Grauer, H. Groeller, J. K. Hogan, R. A. Kowalski, S. M. Larson, G.
    J. Leonard, D. Rankin, R. L. Seaman, F. C. Shelly, K. W. Wierzchos.  1.0-m
    prime focus + CCD.
I93 St Pardon de Conques.  Observer F. Losse.  0.40-m f/3.7 reflector + CCD.

Orbital elements:
2024 GH1                                                 Earth MOID = 0.0043 AU
Epoch 2024 Mar. 31.0 TT = JDT 2460400.5                 Veres                   
M   6.56395              (2000.0)            P               Q                  
n   0.33526338     Peri.  142.65158     -0.96152358     -0.27450596             
a   2.0521635      Node    21.42355     +0.24430128     -0.87252942             
e   0.5339070      Incl.    1.71056     +0.12565542     -0.40415206             
P   2.94           H   28.23          G   0.15           U   7                  
Residuals in seconds of arc
240407 G96  0.1+  0.1+    240407 I52  0.3-  0.1+    240407 474  0.2+  0.0
240407 G96  0.2+  0.3-    240407 I52  0.0   0.0     240407 474  0.1+  0.3-
240407 G96  0.6-  0.5+    240407 474  0.1-  0.1+    240407 I93  0.4+  0.5-
240407 I52  0.3-  0.1+    240407 474  0.1-  0.3+    240407 I93  0.4+  0.2-
240407 I52  0.4+  0.2-    240407 474  0.1+  0.5-    240407 I93  0.6-  0.5+
240407 I52  0.6-  1.8-    240407 474  0.0   0.1-    240408 H21  0.2-  0.0
240407 I52  0.3-  0.2-    240407 474  0.3-  0.4+    240408 H21  0.2-  0.1+
240407 474  0.0   0.0     240407 474  0.2-  0.0     240408 H21  0.3+  0.1-
240407 I52  0.1+  0.2-    240407 474  0.3+  0.1+    240408 H21  0.1+  0.0

Ephemeris:
2024 GH1                 a,e,i = 2.05, 0.53, 2                   q = 0.9565
Date    TT    R. A. (2000) Decl.     Delta      r    Elong.  Phase     V
2024 03 09    03 40 36.5 +27 37 50   0.1361  0.9570    70.9   101.4    27.5
...
2024 03 24    04 06 23.9 +30 47 45   0.06152 0.9700    62.4   114.3    26.6
...
2024 04 01    05 13 50.4 +38 13 01   0.02182 0.9920    70.0   108.9    24.0
...
2024 04 07    13 37 35.0 -00 54 09   0.01377 1.0146   169.7    10.1    19.6
2024 04 08    14 07 22.9 -08 00 34   0.01807 1.0188   165.2    14.6    20.4
2024 04 09    14 25 46.4 -12 14 28   0.02273 1.0231   161.1    18.5    21.0
...
2024 04 15    15 05 04.7 -20 38 39   0.05292 1.0516   155.4    23.4    23.1
...
2024 04 23    15 16 14.2 -22 59 09   0.09543 1.0954   159.7    18.5    24.3
...
2024 05 08    15 17 59.9 -23 38 29   0.1833  1.1912   172.2     6.6    25.4

M. P. C. Staff               (C) Copyright 2024 MPC           M.P.E.C. 2024-G94





More information about the Iaude mailing list